| time (UTC) | temp F | wind direction | speed MPH | gust MPH | rain 1hr in | rain 24hr in | rain mn in | humidity % | barometer mb |
| 20260502214000 | 71 | 326 | 5.0 | 15.0 | 0.00 | 0.00 | 0.00 | 43 | 1013.9 |
| 20260502213500 | 71 | 341 | 7.0 | 15.0 | 0.00 | 0.00 | 0.00 | 39 | 1013.9 |
| 20260502213000 | 71 | 331 | 10.0 | 15.0 | 0.00 | 0.00 | 0.00 | 42 | 1013.9 |
| 20260502212500 | 71 | 317 | 9.0 | 18.0 | 0.00 | 0.00 | 0.00 | 39 | 1013.9 |
| 20260502212000 | 71 | 339 | 9.0 | 18.0 | 0.00 | 0.00 | 0.00 | 39 | 1014.0 |
| 20260502211500 | 71 | 300 | 10.0 | 14.0 | 0.00 | 0.00 | 0.00 | 38 | 1014.1 |
| 20260502211000 | 71 | 318 | 14.0 | 16.0 | 0.00 | 0.00 | 0.00 | 41 | 1014.1 |
| 20260502210500 | 72 | 345 | 8.0 | 16.0 | 0.00 | 0.00 | 0.00 | 39 | 1014.2 |
| 20260502210000 | 71 | 321 | 6.0 | 16.0 | 0.00 | 0.00 | 0.00 | 37 | 1014.3 |
| 20260502205500 | 71 | 311 | 8.0 | 14.0 | 0.00 | 0.00 | 0.00 | 37 | 1014.3 |
| 20260502205000 | 72 | 327 | 13.0 | 13.0 | 0.00 | 0.00 | 0.00 | 41 | 1014.4 |
| 20260502204500 | 71 | 294 | 7.0 | 13.0 | 0.00 | 0.00 | 0.00 | 36 | 1014.4 |
| 20260502204000 | 71 | 320 | 8.0 | 14.0 | 0.00 | 0.00 | 0.00 | 36 | 1014.4 |
| 20260502203500 | 71 | 346 | 7.0 | 17.0 | 0.00 | 0.00 | 0.00 | 37 | 1014.5 |
| 20260502203000 | 72 | 308 | 9.0 | 17.0 | 0.00 | 0.00 | 0.00 | 38 | 1014.5 |
| 20260502202501 | 71 | 292 | 8.0 | 13.0 | 0.00 | 0.00 | 0.00 | 38 | 1014.5 |
| 20260502202000 | 71 | 340 | 10.0 | 17.0 | 0.00 | 0.00 | 0.00 | 37 | 1014.6 |
| 20260502201500 | 71 | 342 | 8.0 | 17.0 | 0.00 | 0.00 | 0.00 | 35 | 1014.7 |
| 20260502201000 | 70 | 326 | 14.0 | 16.0 | 0.00 | 0.00 | 0.00 | 41 | 1014.6 |
| 20260502200500 | 70 | 328 | 9.0 | 18.0 | 0.00 | 0.00 | 0.00 | 41 | 1014.9 |
| 20260502200000 | 71 | 328 | 12.0 | 18.0 | 0.00 | 0.00 | 0.00 | 35 | 1014.9 |
| 20260502195500 | 71 | 318 | 16.0 | 16.0 | 0.00 | 0.00 | 0.00 | 36 | 1014.7 |
| 20260502195000 | 70 | 294 | 9.0 | 17.0 | 0.00 | 0.00 | 0.00 | 37 | 1014.8 |
| 20260502194500 | 70 | 313 | 11.0 | 17.0 | 0.00 | 0.00 | 0.00 | 41 | 1014.9 |
| 20260502194000 | 70 | 328 | 7.0 | 19.0 | 0.00 | 0.00 | 0.00 | 41 | 1015.0 |
| 20260502193500 | 70 | 296 | 14.0 | 20.0 | 0.00 | 0.00 | 0.00 | 40 | 1014.9 |
| 20260502193000 | 70 | 298 | 12.0 | 20.0 | 0.00 | 0.00 | 0.00 | 40 | 1015.0 |
| 20260502192500 | 72 | 294 | 14.0 | 20.0 | 0.00 | 0.00 | 0.00 | 37 | 1015.1 |
| 20260502192000 | 71 | 314 | 13.0 | 20.0 | 0.00 | 0.00 | 0.00 | 44 | 1015.2 |
| 20260502191500 | 72 | 304 | 16.0 | 21.0 | 0.00 | 0.00 | 0.00 | 41 | 1015.1 |
| 20260502191000 | 71 | 310 | 6.0 | 21.0 | 0.00 | 0.00 | 0.00 | 34 | 1015.2 |
| 20260502190500 | 71 | 315 | 12.0 | 14.0 | 0.00 | 0.00 | 0.00 | 41 | 1015.3 |
| 20260502190000 | 71 | 300 | 13.0 | 14.0 | 0.00 | 0.00 | 0.00 | 37 | 1015.3 |
| 20260502185500 | 70 | 313 | 6.0 | 14.0 | 0.00 | 0.00 | 0.00 | 34 | 1015.4 |
| 20260502185000 | 71 | 319 | 7.0 | 21.0 | 0.00 | 0.00 | 0.00 | 36 | 1015.4 |
| 20260502184500 | 70 | 315 | 12.0 | 21.0 | 0.00 | 0.00 | 0.00 | 35 | 1015.4 |
| 20260502184000 | 71 | 294 | 19.0 | 21.0 | 0.00 | 0.00 | 0.00 | 41 | 1015.3 |
| 20260502183501 | 70 | 286 | 10.0 | 18.0 | 0.00 | 0.00 | 0.00 | 40 | 1015.5 |
| 20260502183000 | 70 | 298 | 14.0 | 18.0 | 0.00 | 0.00 | 0.00 | 36 | 1015.6 |
| 20260502182500 | 70 | 301 | 7.0 | 18.0 | 0.00 | 0.00 | 0.00 | 35 | 1015.5 |
| 20260502182000 | 70 | 278 | 15.0 | 15.0 | 0.00 | 0.00 | 0.00 | 40 | 1015.5 |
| 20260502181500 | 69 | 277 | 9.0 | 16.0 | 0.00 | 0.00 | 0.00 | 38 | 1015.7 |
| 20260502181000 | 69 | 300 | 11.0 | 16.0 | 0.00 | 0.00 | 0.00 | 41 | 1015.7 |
| 20260502180500 | 69 | 248 | 7.0 | 14.0 | 0.00 | 0.00 | 0.00 | 43 | 1015.8 |
| 20260502170500 | 68 | 256 | 7.0 | 18.0 | 0.00 | 0.00 | 0.00 | 40 | 1016.3 |
| 20260502164000 | 67 | 300 | 5.0 | 10.0 | 0.00 | 0.00 | 0.00 | 43 | 1016.5 |
| 20260502163500 | 66 | 244 | 5.0 | 10.0 | 0.00 | 0.00 | 0.00 | 43 | 1016.5 |
| 20260502163000 | 67 | 275 | 5.0 | 12.0 | 0.00 | 0.00 | 0.00 | 43 | 1016.4 |
| 20260502162500 | 67 | 285 | 7.0 | 12.0 | 0.00 | 0.00 | 0.00 | 45 | 1016.4 |
| 20260502162000 | 66 | 273 | 2.0 | 10.0 | 0.00 | 0.00 | 0.00 | 40 | 1016.4 |
| 20260502161500 | 66 | 249 | 4.0 | 8.0 | 0.00 | 0.00 | 0.00 | 46 | 1016.4 |
| 20260502161000 | 65 | 247 | 4.0 | 12.0 | 0.00 | 0.00 | 0.00 | 46 | 1016.4 |
| 20260502160500 | 66 | 236 | 6.0 | 12.0 | 0.00 | 0.00 | 0.00 | 49 | 1016.5 |
| 20260502152000 | 64 | 255 | 3.0 | 10.0 | 0.00 | 0.00 | 0.00 | 42 | 1016.5 |
| 20260502151500 | 64 | 332 | 4.0 | 9.0 | 0.00 | 0.00 | 0.00 | 42 | 1016.5 |
| 20260502151000 | 64 | 248 | 4.0 | 7.0 | 0.00 | 0.00 | 0.00 | 43 | 1016.5 |
| 20260502150500 | 63 | 299 | 3.0 | 7.0 | 0.00 | 0.00 | 0.00 | 47 | 1016.5 |
| 20260502130500 | 54 | 285 | 3.0 | 3.0 | 0.00 | 0.00 | 0.00 | 86 | 1015.5 |
| 20260502123500 | 50 | 273 | 2.0 | 3.0 | 0.00 | 0.00 | 0.00 | 93 | 1014.9 |
| 20260502123000 | 50 | 290 | 3.0 | 3.0 | 0.00 | 0.00 | 0.00 | 94 | 1014.7 |
| 20260502122500 | 49 | 303 | 2.0 | 2.0 | 0.00 | 0.00 | 0.00 | 94 | 1014.6 |
| 20260502122000 | 49 | 332 | 1.0 | 2.0 | 0.00 | 0.00 | 0.00 | 93 | 1014.6 |
| 20260502121505 | 49 | 276 | 1.0 | 2.0 | 0.00 | 0.00 | 0.00 | 94 | 1014.5 |
| 20260502121000 | 49 | 287 | 2.0 | 3.0 | 0.00 | 0.00 | 0.00 | 94 | 1014.5 |
| 20260502120505 | 49 | 280 | 1.0 | 3.0 | 0.00 | 0.00 | 0.00 | 94 | 1014.4 |
| 20260502115500 | 48 | 297 | 3.0 | 3.0 | 0.00 | 0.00 | 0.00 | 94 | 1014.3 |
| 20260502115000 | 48 | 310 | 2.0 | 2.0 | 0.00 | 0.00 | 0.00 | 94 | 1014.3 |
| 20260502114500 | 48 | 317 | 1.0 | 2.0 | 0.00 | 0.00 | 0.00 | 94 | 1014.1 |
| 20260502114000 | 48 | 299 | 2.0 | 2.0 | 0.00 | 0.00 | 0.00 | 94 | 1014.0 |
| 20260502113500 | 48 | 318 | 1.0 | 3.0 | 0.00 | 0.00 | 0.00 | 93 | 1013.9 |
| 20260502113000 | 48 | 280 | 2.0 | 3.0 | 0.00 | 0.00 | 0.00 | 93 | 1013.8 |
| 20260502112500 | 48 | 296 | 2.0 | 2.0 | 0.00 | 0.00 | 0.00 | 94 | 1013.8 |
| 20260502112000 | 48 | 312 | 2.0 | 2.0 | 0.00 | 0.00 | 0.00 | 93 | 1013.8 |
| 20260502111500 | 48 | 318 | 1.0 | 1.0 | 0.00 | 0.00 | 0.00 | 93 | 1013.7 |
| 20260502111000 | 48 | 345 | 1.0 | 1.0 | 0.00 | 0.00 | 0.00 | 93 | 1013.6 |
| 20260502110500 | 48 | 301 | 1.0 | 1.0 | 0.00 | 0.00 | 0.00 | 93 | 1013.6 |
| 20260502110000 | 48 | 278 | 1.0 | 1.0 | 0.00 | 0.00 | 0.00 | 93 | 1013.7 |
| 20260502105500 | 48 | 85 | 1.0 | 2.0 | 0.00 | 0.00 | 0.00 | 93 | 1013.7 |
| 20260502105000 | 48 | 261 | 1.0 | 2.0 | 0.00 | 0.00 | 0.00 | 93 | 1013.6 |
| 20260502104500 | 48 | 234 | 1.0 | 1.0 | 0.00 | 0.00 | 0.00 | 93 | 1013.5 |
| 20260502104000 | 48 | 233 | 1.0 | 2.0 | 0.00 | 0.00 | 0.00 | 93 | 1013.5 |
| 20260502103500 | 49 | 262 | 1.0 | 2.0 | 0.00 | 0.00 | 0.00 | 93 | 1013.5 |
| 20260502103000 | 49 | 263 | 1.0 | 3.0 | 0.00 | 0.00 | 0.00 | 93 | 1013.5 |
| 20260502102500 | 49 | 268 | 1.0 | 3.0 | 0.00 | 0.00 | 0.00 | 93 | 1013.5 |
| 20260502102000 | 49 | 279 | 3.0 | 3.0 | 0.00 | 0.00 | 0.00 | 93 | 1013.4 |
| 20260502101500 | 49 | 282 | 2.0 | 2.0 | 0.00 | 0.00 | 0.00 | 93 | 1013.4 |
| 20260502101000 | 49 | 283 | 2.0 | 3.0 | 0.00 | 0.00 | 0.00 | 92 | 1013.3 |
| 20260502100500 | 49 | 282 | 2.0 | 3.0 | 0.00 | 0.00 | 0.00 | 92 | 1013.3 |
| 20260502091500 | 50 | 297 | 2.0 | 2.0 | 0.00 | 0.00 | 0.00 | 90 | 1012.9 |
| 20260502091000 | 50 | 286 | 2.0 | 2.0 | 0.00 | 0.00 | 0.00 | 90 | 1012.9 |
| 20260502090500 | 50 | 290 | 2.0 | 2.0 | 0.00 | 0.00 | 0.00 | 90 | 1012.9 |
| 20260502071500 | 54 | 307 | 0.0 | 2.0 | 0.00 | 0.00 | 0.00 | 84 | 1012.9 |
| 20260502071000 | 54 | 348 | 1.0 | 2.0 | 0.00 | 0.00 | 0.00 | 82 | 1013.0 |
| 20260502070500 | 55 | 358 | 1.0 | 2.0 | 0.00 | 0.00 | 0.00 | 84 | 1012.9 |
| 20260502070000 | 55 | 313 | 1.0 | 3.0 | 0.00 | 0.00 | 0.00 | 83 | 1013.1 |
| 20260502065500 | 55 | 319 | 1.0 | 3.0 | 0.00 | 0.00 | 0.00 | 82 | 1013.1 |
| 20260502065000 | 55 | 326 | 2.0 | 4.0 | 0.00 | 0.00 | 0.00 | 83 | 1013.1 |
| 20260502064500 | 55 | 328 | 3.0 | 4.0 | 0.00 | 0.00 | 0.00 | 82 | 1013.2 |
| 20260502064000 | 55 | 329 | 3.0 | 5.0 | 0.00 | 0.00 | 0.00 | 82 | 1013.2 |
| 20260502063500 | 55 | 314 | 4.0 | 5.0 | 0.00 | 0.00 | 0.00 | 82 | 1013.3 |
| 20260502063000 | 55 | 332 | 3.0 | 4.0 | 0.00 | 0.00 | 0.00 | 83 | 1013.3 |
| 20260502062500 | 55 | 326 | 3.0 | 4.0 | 0.00 | 0.00 | 0.00 | 82 | 1013.4 |
| 20260502062000 | 55 | 338 | 4.0 | 5.0 | 0.00 | 0.00 | 0.00 | 81 | 1013.4 |
| 20260502061500 | 55 | 319 | 4.0 | 5.0 | 0.00 | 0.00 | 0.00 | 82 | 1013.3 |
| 20260502061001 | 55 | 333 | 3.0 | 5.0 | 0.00 | 0.00 | 0.00 | 80 | 1013.2 |
| 20260502060500 | 55 | 325 | 4.0 | 5.0 | 0.00 | 0.00 | 0.00 | 82 | 1013.2 |
| 20260502060000 | 55 | 328 | 4.0 | 5.0 | 0.00 | 0.00 | 0.00 | 81 | 1013.2 |
| 20260502055500 | 55 | 321 | 4.0 | 5.0 | 0.00 | 0.00 | 0.00 | 81 | 1013.1 |
| 20260502055000 | 55 | 326 | 4.0 | 4.0 | 0.00 | 0.00 | 0.00 | 86 | 1013.2 |
| 20260502054500 | 55 | 319 | 3.0 | 4.0 | 0.00 | 0.00 | 0.00 | 88 | 1013.2 |
| 20260502054000 | 55 | 319 | 4.0 | 4.0 | 0.00 | 0.00 | 0.00 | 87 | 1013.3 |
| 20260502053500 | 55 | 319 | 2.0 | 3.0 | 0.00 | 0.00 | 0.00 | 86 | 1013.4 |
| 20260502053000 | 55 | 311 | 2.0 | 2.0 | 0.00 | 0.00 | 0.00 | 84 | 1013.4 |
| 20260502052501 | 55 | 300 | 1.0 | 2.0 | 0.00 | 0.00 | 0.00 | 82 | 1013.5 |
| 20260502052000 | 55 | 282 | 1.0 | 2.0 | 0.00 | 0.00 | 0.00 | 83 | 1013.5 |
| 20260502051500 | 55 | 263 | 1.0 | 2.0 | 0.00 | 0.00 | 0.00 | 82 | 1013.4 |
| 20260502051000 | 55 | 275 | 2.0 | 2.0 | 0.00 | 0.00 | 0.00 | 84 | 1013.3 |
| 20260502050500 | 55 | 275 | 1.0 | 2.0 | 0.00 | 0.00 | 0.00 | 85 | 1013.3 |
| 20260502050000 | 55 | 271 | 1.0 | 3.0 | 0.00 | 0.00 | 0.00 | 86 | 1013.2 |
| 20260502045500 | 55 | 279 | 1.0 | 3.0 | 0.00 | 0.00 | 0.00 | 86 | 1013.2 |
| 20260502045000 | 55 | 272 | 3.0 | 3.0 | 0.00 | 0.00 | 0.00 | 85 | 1013.1 |
| 20260502044500 | 55 | 270 | 2.0 | 2.0 | 0.00 | 0.00 | 0.00 | 86 | 1013.1 |
| 20260502044000 | 55 | 275 | 1.0 | 2.0 | 0.00 | 0.00 | 0.00 | 86 | 1013.1 |
| 20260502043500 | 55 | 292 | 2.0 | 3.0 | 0.00 | 0.00 | 0.00 | 86 | 1013.0 |
| 20260502043000 | 55 | 294 | 2.0 | 4.0 | 0.00 | 0.00 | 0.00 | 84 | 1013.0 |
| 20260502042500 | 55 | 294 | 3.0 | 4.0 | 0.00 | 0.00 | 0.00 | 84 | 1013.1 |
| 20260502042000 | 55 | 288 | 3.0 | 4.0 | 0.00 | 0.00 | 0.00 | 83 | 1013.1 |
| 20260502041500 | 55 | 282 | 3.0 | 3.0 | 0.00 | 0.00 | 0.00 | 82 | 1013.1 |
| 20260502041000 | 56 | 289 | 2.0 | 3.0 | 0.00 | 0.00 | 0.00 | 83 | 1013.1 |
| 20260502040500 | 56 | 287 | 3.0 | 3.0 | 0.00 | 0.00 | 0.00 | 82 | 1013.2 |
| 20260502040000 | 57 | 327 | 3.0 | 4.0 | 0.00 | 0.00 | 0.00 | 75 | 1013.2 |
| 20260502035500 | 57 | 333 | 2.0 | 4.0 | 0.00 | 0.00 | 0.00 | 71 | 1013.1 |
| 20260502035000 | 58 | 332 | 4.0 | 4.0 | 0.00 | 0.00 | 0.00 | 69 | 1013.2 |
| 20260502034500 | 58 | 339 | 3.0 | 4.0 | 0.00 | 0.00 | 0.00 | 67 | 1013.2 |
| 20260502034000 | 58 | 337 | 3.0 | 3.0 | 0.00 | 0.00 | 0.00 | 67 | 1013.2 |
| 20260502033500 | 58 | 335 | 3.0 | 3.0 | 0.00 | 0.00 | 0.00 | 67 | 1013.2 |
| 20260502033001 | 58 | 342 | 3.0 | 3.0 | 0.00 | 0.00 | 0.00 | 68 | 1013.2 |
| 20260502032500 | 58 | 345 | 3.0 | 3.0 | 0.00 | 0.00 | 0.00 | 66 | 1013.1 |
| 20260502032000 | 58 | 354 | 3.0 | 4.0 | 0.00 | 0.00 | 0.00 | 66 | 1013.1 |
| 20260502031500 | 58 | 349 | 3.0 | 4.0 | 0.00 | 0.00 | 0.00 | 65 | 1013.0 |
| 20260502031000 | 58 | 355 | 3.0 | 4.0 | 0.00 | 0.00 | 0.00 | 66 | 1012.9 |
| 20260502030500 | 59 | 347 | 3.0 | 3.0 | 0.00 | 0.00 | 0.00 | 66 | 1013.0 |
| 20260502030000 | 59 | 8 | 2.0 | 3.0 | 0.00 | 0.00 | 0.00 | 65 | 1013.0 |
| 20260502025500 | 59 | 334 | 1.0 | 2.0 | 0.00 | 0.00 | 0.00 | 66 | 1013.1 |
| 20260502025000 | 59 | 333 | 2.0 | 4.0 | 0.00 | 0.00 | 0.00 | 64 | 1012.9 |
| 20260502024500 | 60 | 37 | 2.0 | 4.0 | 0.00 | 0.00 | 0.00 | 63 | 1012.8 |
| 20260502024000 | 59 | 17 | 1.0 | 3.0 | 0.00 | 0.00 | 0.00 | 63 | 1012.7 |
| 20260502023500 | 59 | 345 | 1.0 | 4.0 | 0.00 | 0.00 | 0.00 | 65 | 1012.6 |
| 20260502023000 | 60 | 354 | 2.0 | 8.0 | 0.00 | 0.00 | 0.00 | 63 | 1012.7 |
| 20260502022500 | 60 | 344 | 3.0 | 8.0 | 0.00 | 0.00 | 0.00 | 61 | 1012.5 |
| 20260502022000 | 60 | 14 | 6.0 | 6.0 | 0.00 | 0.00 | 0.00 | 60 | 1012.4 |
| 20260502021500 | 60 | 10 | 5.0 | 6.0 | 0.00 | 0.00 | 0.00 | 61 | 1012.3 |
| 20260502021000 | 60 | 350 | 2.0 | 6.0 | 0.00 | 0.00 | 0.00 | 61 | 1012.5 |
| 20260502020500 | 60 | 13 | 4.0 | 6.0 | 0.00 | 0.00 | 0.00 | 63 | 1012.3 |
| 20260502020000 | 60 | 6 | 4.0 | 5.0 | 0.00 | 0.00 | 0.00 | 64 | 1012.5 |
| 20260502015500 | 60 | 29 | 3.0 | 4.0 | 0.00 | 0.00 | 0.00 | 65 | 1012.6 |
| 20260502015000 | 60 | 58 | 3.0 | 4.0 | 0.00 | 0.00 | 0.00 | 65 | 1012.7 |
| 20260502014500 | 60 | 22 | 3.0 | 3.0 | 0.00 | 0.00 | 0.00 | 64 | 1012.8 |
| 20260502014000 | 60 | 10 | 2.0 | 4.0 | 0.00 | 0.00 | 0.00 | 62 | 1012.8 |
| 20260502013500 | 60 | 353 | 3.0 | 4.0 | 0.00 | 0.00 | 0.00 | 61 | 1012.8 |
| 20260502013000 | 60 | 13 | 3.0 | 4.0 | 0.00 | 0.00 | 0.00 | 68 | 1012.8 |
| 20260502012500 | 61 | 11 | 2.0 | 3.0 | 0.00 | 0.00 | 0.00 | 59 | 1012.9 |
| 20260502012000 | 60 | 66 | 2.0 | 3.0 | 0.00 | 0.00 | 0.00 | 60 | 1012.9 |
| 20260502011500 | 60 | 40 | 1.0 | 3.0 | 0.00 | 0.00 | 0.00 | 61 | 1012.9 |
| 20260502011000 | 61 | 357 | 3.0 | 3.0 | 0.00 | 0.00 | 0.00 | 58 | 1012.9 |
| 20260502010500 | 61 | 38 | 1.0 | 3.0 | 0.00 | 0.00 | 0.00 | 57 | 1012.9 |
| 20260502010000 | 61 | 108 | 2.0 | 3.0 | 0.00 | 0.00 | 0.00 | 54 | 1012.9 |
| 20260502005500 | 61 | 105 | 1.0 | 4.0 | 0.00 | 0.00 | 0.00 | 52 | 1012.9 |
| 20260502005000 | 62 | 54 | 1.0 | 4.0 | 0.00 | 0.00 | 0.00 | 52 | 1012.5 |
| 20260502004500 | 62 | 40 | 3.0 | 5.0 | 0.00 | 0.00 | 0.00 | 50 | 1012.6 |
| 20260502004000 | 62 | 70 | 2.0 | 5.0 | 0.00 | 0.00 | 0.00 | 49 | 1012.6 |
| 20260502003505 | 62 | 88 | 4.0 | 5.0 | 0.00 | 0.00 | 0.00 | 47 | 1012.7 |
| 20260502002501 | 63 | 74 | 4.0 | 7.0 | 0.00 | 0.00 | 0.00 | 48 | 1012.5 |
| 20260502002000 | 63 | 27 | 3.0 | 7.0 | 0.00 | 0.00 | 0.00 | 46 | 1012.5 |
| 20260502001500 | 63 | 69 | 3.0 | 12.0 | 0.00 | 0.00 | 0.00 | 46 | 1012.2 |
| 20260502001000 | 63 | 57 | 4.0 | 12.0 | 0.00 | 0.00 | 0.00 | 45 | 1011.9 |
| 20260502000501 | 63 | 61 | 7.0 | 9.0 | 0.00 | 0.00 | 0.00 | 45 | 1011.6 |
| 20260502000000 | 63 | 49 | 5.0 | 9.0 | 0.00 | 0.00 | 0.00 | 45 | 1011.4 |
| 20260501235500 | 63 | 33 | 4.0 | 13.0 | 0.00 | 0.00 | 0.00 | 46 | 1011.2 |
| 20260501235000 | 63 | 51 | 6.0 | 13.0 | 0.00 | 0.00 | 0.00 | 44 | 1011.1 |
| 20260501234500 | 63 | 25 | 3.0 | 13.0 | 0.00 | 0.00 | 0.00 | 47 | 1011.3 |
| 20260501234000 | 63 | 67 | 5.0 | 9.0 | 0.00 | 0.00 | 0.00 | 47 | 1011.5 |
| 20260501233500 | 64 | 53 | 4.0 | 9.0 | 0.00 | 0.00 | 0.00 | 45 | 1011.5 |
| 20260501233000 | 64 | 17 | 5.0 | 9.0 | 0.00 | 0.00 | 0.00 | 47 | 1011.5 |
| 20260501232500 | 64 | 68 | 6.0 | 10.0 | 0.00 | 0.00 | 0.00 | 47 | 1011.4 |
| 20260501232000 | 64 | 12 | 4.0 | 10.0 | 0.00 | 0.00 | 0.00 | 46 | 1011.2 |
| 20260501231500 | 64 | 28 | 5.0 | 9.0 | 0.00 | 0.00 | 0.00 | 45 | 1011.2 |
| 20260501231000 | 64 | 20 | 7.0 | 8.0 | 0.00 | 0.00 | 0.00 | 46 | 1011.4 |
| 20260501230500 | 64 | 32 | 5.0 | 9.0 | 0.00 | 0.00 | 0.00 | 44 | 1011.5 |
| 20260501230000 | 64 | 22 | 3.0 | 9.0 | 0.00 | 0.00 | 0.00 | 45 | 1011.4 |
| 20260501225500 | 64 | 38 | 8.0 | 10.0 | 0.00 | 0.00 | 0.00 | 43 | 1011.2 |
| 20260501225000 | 64 | 1 | 8.0 | 11.0 | 0.00 | 0.00 | 0.00 | 42 | 1011.3 |
| 20260501224500 | 64 | 23 | 6.0 | 11.0 | 0.00 | 0.00 | 0.00 | 41 | 1011.3 |
| 20260501224001 | 64 | 32 | 8.0 | 11.0 | 0.00 | 0.00 | 0.00 | 43 | 1011.3 |
| 20260501223500 | 64 | 359 | 6.0 | 14.0 | 0.00 | 0.00 | 0.00 | 42 | 1011.3 |
| 20260501223000 | 64 | 14 | 7.0 | 14.0 | 0.00 | 0.00 | 0.00 | 49 | 1011.2 |
| 20260501222500 | 64 | 26 | 10.0 | 12.0 | 0.00 | 0.00 | 0.00 | 43 | 1011.1 |
| 20260501222000 | 64 | 347 | 11.0 | 16.0 | 0.00 | 0.00 | 0.00 | 44 | 1011.1 |
| 20260501221500 | 64 | 355 | 9.0 | 16.0 | 0.00 | 0.00 | 0.00 | 44 | 1011.0 |
| 20260501221000 | 64 | 28 | 9.0 | 13.0 | 0.00 | 0.00 | 0.00 | 46 | 1010.9 |
| 20260501220500 | 64 | 26 | 7.0 | 13.0 | 0.00 | 0.00 | 0.00 | 51 | 1010.8 |
| 20260501220000 | 64 | 67 | 8.0 | 15.0 | 0.00 | 0.00 | 0.00 | 53 | 1010.8 |
| 20260501215500 | 64 | 40 | 5.0 | 16.0 | 0.00 | 0.00 | 0.00 | 49 | 1010.8 |
| 20260501215000 | 64 | 25 | 9.0 | 16.0 | 0.00 | 0.00 | 0.00 | 51 | 1010.8 |
| 20260501214500 | 64 | 57 | 13.0 | 15.0 | 0.00 | 0.00 | 0.00 | 51 | 1010.5 |